Dewpoint
10 10 10 9 8 7 6 5 3 2 2 2 2 3 3 4 4 5 5 5 5 5 5 5 4 3 2 2 2 2 2 2 4 8 8 9 9 10 10 10 9 9 6
9 10 10 9 8 7 7 6 5 5 4 4 3 3 3 3 3 4 4 5 6 8 8 8 7 6 5 3 3 3 3 3 4 4 7 7 8 10 9 10 9 10 8
11 10 10 9 8 8 8 7 7 6 6 5 5 5 5 4 5 5 5 5 9 11 11 11 11 9 7 7 7 5 4 4 4 3 4 8 8 10 9 9 10 10 9
11 11 10 9 9 8 8 7 7 7 7 7 7 7 6 6 7 7 7 7 7 7 7 7 6 5 6 6 7 7 8 6 5 4 4 4 7 8 9 10 10 10 11
12 11 10 10 9 9 8 8 8 8 8 8 8 8 11 11 7 9 9 9 8 8 8 8 9 9 9 8 8 7 7 7 8 8 6 4 3 4 7 9 11 10 11
12 11 10 10 10 9 9 8 8 8 8 8 8 9 9 10 9 9 9 9 9 9 9 9 9 9 9 9 9 9 9 8 8 8 9 9 7 4 5 6 7 11 11
13 12 11 11 10 10 9 9 9 9 9 9 9 9 10 10 10 10 10 10 10 10 10 10 10 10 10 10 10 10 10 9 9 9 10 10 10 9 7 8 6 7 10
14 13 11 11 10 10 10 10 10 10 10 10 10 10 10 10 10 10 9 9 8 7 6 5 3 1 0 -0 -0 1 1 2 5 7 9 10 11 11 11 11 11 8 9
14 12 11 11 10 10 10 11 10 10 10 10 10 10 10 9 7 5 2 -3 -6 -9 -12 -13 -13 -14 -15 -16 -17 -16 -15 -15 -14 -11 -4 1 5 10 11 10 11 11 8
14 12 11 11 10 10 10 11 11 10 9 9 9 9 5 0 -4 -9 -12 -14 -14 -15 -15 -16 -17 -17 -18 -19 -20 -21 -21 -21 -21 -20 -19 -15 -6 1 6 10 9 10 10
13 12 11 11 11 11 10 10 10 7 7 7 6 1 -9 -12 -13 -13 -13 -14 -14 -15 -16 -18 -19 -20 -21 -22 -23 -23 -23 -24 -24 -24 -23 -23 -20 -17 -8 -2 3 8 10
13 12 11 11 11 11 10 9 7 5 4 3 -4 -13 -14 -14 -13 -13 -13 -14 -16 -18 -20 -22 -22 -23 -24 -24 -25 -25 -25 -25 -24 -23 -23 -22 -20 -18 -10 -17 -18 -9 2
12 12 12 12 11 11 10 7 1 0 -1 -6 -15 -15 -13 -12 -12 -13 -14 -17 -19 -21 -22 -24 -25 -26 -27 -28 -28 -27 -26 -25 -24 -23 -22 -21 -23 -21 -15 -14 -18 -18 -21
12 12 11 11 11 10 8 2 -6 -12 -12 -16 -14 -12 -12 -12 -13 -15 -18 -19 -21 -23 -24 -25 -26 -27 -28 -28 -29 -29 -29 -28 -25 -21 -18 -21 -19 -18 -18 -17 -16 -16 -15
12 12 11 11 11 9 6 -5 -16 -19 -16 -13 -12 -11 -11 -13 -16 -17 -18 -20 -23 -23 -24 -25 -26 -26 -27 -27 -28 -29 -30 -29 -27 -21 -16 -15 -13 -10 -8 -7 -8 -11 -10
12 11 11 11 10 8 3 -9 -16 -14 -13 -11 -11 -11 -13 -15 -17 -18 -20 -22 -23 -24 -25 -26 -25 -26 -26 -26 -26 -27 -28 -28 -26 -22 -17 -14 -12 -12 -13 -14 -15 -16 -15
11 11 11 11 9 7 1 -8 -11 -11 -11 -11 -11 -13 -15 -17 -17 -19 -21 -22 -23 -24 -25 -25 -25 -25 -25 -25 -25 -25 -25 -25 -24 -21 -19 -17 -15 -14 -14 -14 -15 -17 -20
11 11 11 11 9 6 1 -7 -10 -10 -11 -11 -12 -14 -16 -17 -18 -20 -21 -22 -23 -23 -23 -24 -24 -24 -24 -23 -23 -24 -24 -22 -21 -19 -16 -14 -16 -18 -20 -22 -22 -22 -22
12 12 12 11 8 5 1 -6 -8 -9 -10 -11 -13 -16 -17 -18 -19 -20 -21 -22 -23 -23 -23 -24 -23 -23 -23 -23 -23 -22 -22 -19 -16 -13 -16 -18 -19 -20 -22 -23 -23 -21 -20
12 12 12 10 7 4 1 -4 -8 -9 -10 -12 -14 -16 -17 -19 -19 -19 -20 -22 -23 -23 -23 -23 -23 -23 -23 -23 -24 -22 -20 -17 -14 -19 -16 -18 -21 -22 -23 -23 -23 -22 -21
12 12 11 9 6 4 -0 -4 -7 -8 -10 -12 -14 -16 -18 -18 -18 -19 -20 -21 -21 -21 -22 -22 -22 -23 -24 -24 -26 -23 -20 -16 -15 -21 -19 -19 -24 -29 -29 -29 -24 -21 -20
11 9 8 7 5 3 -1 -4 -8 -9 -10 -11 -13 -15 -17 -17 -17 -18 -19 -20 -20 -21 -21 -21 -22 -23 -24 -25 -27 -26 -17 -15 -17 -18 -21 -29 -30 -31 -30 -30 -25 -25 -23
10 7 5 4 3 2 -1 -5 -6 -8 -9 -10 -13 -15 -16 -16 -17 -18 -18 -19 -19 -20 -20 -21 -22 -23 -25 -27 -29 -30 -15 -15 -30 -25 -21 -30 -31 -31 -32 -26 -27 -28 -26
9 6 4 2 -0 -1 -3 -5 -7 -9 -9 -10 -12 -14 -15 -15 -16 -17 -17 -18 -18 -19 -20 -21 -22 -24 -27 -29 -30 -33 -33 -30 -27 -15 -29 -31 -32 -30 -31 -27 -27 -28 -24
7 6 3 0 -3 -4 -5 -5 -6 -7 -8 -9 -12 -14 -14 -14 -15 -16 -16 -17 -18 -18 -19 -21 -22 -26 -28 -30 -32 -33 -32 -28 -25 -18 -14 -17 -19 -24 -27 -24 -29 -28 -25
6 5 3 0 -2 -4 -5 -5 -6 -7 -8 -9 -11 -13 -14 -14 -14 -15 -16 -16 -17 -18 -19 -21 -24 -27 -30 -32 -33 -33 -33 -27 -20 -17 -11 -12 -15 -13 -26 -24 -20 -22 -25
Wind_Speed
23 20 17 16 15 14 12 11 10 9 9 9 9 9 9 8 8 7 8 7 7 7 7 7 6 6 6 6 6 6 6 6 6 6 7 7 7 8 10 12 15 18 18
25 21 19 17 16 14 13 12 11 10 9 9 8 8 8 8 7 6 6 6 6 6 6 5 5 5 6 6 6 6 6 6 6 7 6 7 8 8 9 10 12 15 17
25 22 19 17 16 14 12 11 10 10 10 9 8 8 7 7 6 5 5 5 6 6 5 4 3 4 4 5 5 6 6 6 5 6 7 6 7 8 9 8 9 12 15
25 22 20 18 17 15 13 11 10 9 9 8 8 7 5 6 5 4 3 3 2 2 1 1 3 4 4 4 4 5 6 7 7 7 7 8 9 9 9 8 9 10 13
24 22 21 19 17 15 13 12 11 9 7 6 5 5 6 5 4 2 1 1 2 2 3 4 4 5 5 6 6 6 7 8 9 9 9 9 10 11 11 11 8 9 11
24 23 21 19 16 15 14 12 10 9 7 5 3 2 2 1 1 1 0 1 1 2 3 4 5 6 6 7 7 8 9 10 11 11 11 10 10 12 12 12 12 11 10
22 21 20 18 17 15 13 11 10 9 8 7 5 4 3 2 2 1 1 0 1 3 4 4 5 6 6 7 8 8 8 9 11 12 12 11 10 11 13 13 13 12 11
20 22 21 19 17 15 12 11 10 9 8 6 5 5 4 3 1 1 1 2 3 4 5 6 7 8 8 9 10 11 11 10 10 11 11 11 11 11 13 13 14 13 12
20 23 22 20 18 15 13 12 11 9 8 7 6 6 5 3 2 2 2 3 4 5 6 7 8 8 9 9 10 10 10 10 10 11 12 13 13 12 13 15 16 15 13
21 22 22 20 18 16 15 13 11 10 9 8 8 6 5 4 4 3 3 4 5 6 7 7 8 9 9 10 11 11 11 11 10 10 10 11 11 11 11 13 16 16 14
23 24 23 21 19 18 16 14 13 12 11 10 8 7 7 5 3 1 2 4 5 6 6 7 8 9 10 10 11 11 11 12 11 11 10 9 9 11 12 14 13 14 14
29 27 24 22 20 18 17 16 15 13 12 11 10 9 7 5 2 1 3 4 5 6 6 7 8 8 9 9 9 10 10 11 11 10 10 10 11 12 12 15 14 14 15
30 28 26 24 22 19 18 18 16 15 14 14 12 9 6 3 1 1 3 3 4 5 6 7 8 8 9 10 10 10 9 9 9 8 9 10 12 13 14 15 15 16 14
32 29 27 26 23 21 19 18 17 17 17 15 12 9 5 3 2 1 0 1 3 5 7 8 9 10 10 10 10 10 9 9 7 6 7 12 12 13 15 16 16 15 14
33 33 30 28 25 23 21 20 20 20 18 15 12 9 6 3 2 2 0 2 4 6 7 8 9 9 10 11 10 10 9 8 7 6 8 10 11 12 12 13 13 13 13
36 35 33 30 27 23 22 21 22 21 19 16 12 9 7 5 3 1 1 3 4 5 7 8 9 10 11 10 10 9 9 8 7 6 7 9 10 11 12 14 14 13 11
37 36 34 31 28 26 24 23 23 21 19 16 13 10 8 6 3 1 1 3 4 6 8 9 9 9 9 9 9 9 7 6 6 6 7 8 10 11 13 14 15 14 11
38 35 33 32 30 28 26 25 24 21 19 17 14 11 9 6 4 2 1 2 5 7 7 7 8 9 9 9 9 7 6 5 5 5 7 9 11 13 14 16 17 16 14
38 36 35 34 32 31 29 27 25 23 20 18 15 12 10 7 5 3 1 3 5 6 7 7 8 9 9 9 8 7 5 3 3 5 7 9 11 13 14 15 16 16 15
39 38 37 36 35 33 31 29 28 25 22 19 16 14 11 9 6 3 1 2 3 5 5 7 8 9 9 8 7 6 3 2 3 9 7 8 12 14 14 14 13 13 14
41 41 41 40 38 37 36 35 31 29 25 22 19 16 13 10 7 5 2 1 2 3 5 6 7 8 7 7 6 3 1 2 4 10 9 10 14 17 17 15 14 13 13
45 45 43 41 40 40 37 35 33 30 26 22 20 17 14 12 9 6 3 1 0 3 5 6 7 7 7 7 6 2 1 1 4 4 7 13 14 15 16 14 12 13 13
49 49 46 44 43 41 39 36 34 31 28 27 24 20 17 14 11 8 5 3 1 2 3 5 7 8 8 7 7 4 2 1 7 5 5 14 18 17 17 12 13 15 14
56 52 48 46 45 43 41 41 40 38 35 31 26 23 19 16 13 9 6 4 2 2 3 5 7 9 7 7 7 6 5 2 3 1 9 11 14 13 16 15 15 17 15
53 54 51 47 45 45 44 43 41 38 34 30 27 24 22 18 14 11 8 6 4 4 4 5 6 5 5 7 7 8 7 6 5 2 5 11 14 11 12 16 17 16 16
52 55 53 50 49 47 46 45 43 40 37 33 31 28 24 21 17 13 10 8 6 4 3 4 5 4 5 6 6 6 5 4 5 5 4 11 13 14 8 12 13 12 21
Wind_Direction
173 171 167 161 160 159 157 153 142 135 130 123 118 114 109 105 101 101 100 96 94 87 83 79 72 59 50 39 32 29 32 21 18 19 24 22 13 19 20 18 18 13 11
171 171 168 166 166 164 162 157 152 146 140 133 125 121 123 123 120 119 114 108 89 77 70 68 62 51 38 33 19 10 14 11 357 356 359 5 7 352 358 9 13 13 12
173 170 169 171 172 168 168 165 160 154 151 147 143 144 144 132 130 123 116 112 115 113 95 60 47 45 27 18 11 359 357 354 347 340 333 333 346 349 340 339 6 8 9
171 170 172 176 176 172 174 175 174 168 164 159 155 151 147 146 142 128 119 118 120 119 84 307 326 350 353 346 342 337 336 335 337 336 325 322 324 323 333 329 346 357 1
170 171 177 180 178 177 181 182 183 180 178 172 157 139 114 100 72 94 85 350 350 345 319 335 334 336 334 332 324 319 318 319 325 327 325 322 321 320 320 327 318 335 349
170 176 180 181 180 184 186 186 184 186 187 190 184 168 139 146 139 162 217 304 292 304 311 317 322 325 326 323 322 324 322 322 324 323 324 324 319 319 319 320 317 308 323
172 178 179 182 184 188 188 187 186 187 192 193 187 180 171 173 160 165 185 313 344 351 350 349 346 344 342 337 335 336 332 330 326 326 326 326 321 312 309 313 312 307 298
184 182 183 185 189 189 188 190 190 193 199 186 174 159 160 158 138 72 16 7 3 3 359 355 352 351 351 348 346 344 341 340 332 327 327 324 322 310 299 301 308 306 295
186 187 186 189 190 187 189 194 194 194 190 178 170 160 154 154 151 108 62 37 22 14 2 358 354 351 349 345 343 340 338 336 332 329 324 323 322 319 314 301 294 295 297
190 192 192 193 192 190 189 190 190 190 183 177 173 165 156 146 123 84 36 5 355 354 352 347 343 341 341 340 338 336 336 336 333 330 327 336 330 326 310 295 301 295 299
194 194 195 197 194 191 188 191 189 188 185 182 177 166 151 144 134 54 342 334 333 336 340 343 342 339 338 336 334 329 327 326 330 334 331 322 314 310 307 302 306 300 288
194 191 194 197 196 193 191 189 191 193 188 183 171 163 165 166 174 306 333 336 344 349 352 350 347 344 341 338 339 335 333 334 332 332 327 321 316 306 312 308 309 300 295
192 192 192 196 195 196 195 190 191 193 188 178 175 175 176 188 211 307 336 348 357 357 357 354 349 347 350 351 348 345 344 340 340 338 328 309 304 311 312 309 308 310 312
196 195 196 196 198 197 195 193 190 187 182 182 182 182 185 212 242 261 308 2 8 3 5 360 357 356 356 358 358 355 351 344 341 336 321 316 319 312 309 314 317 320 319
198 201 199 200 202 201 195 194 188 182 184 188 189 189 192 206 214 211 281 10 9 9 4 5 6 5 6 4 0 354 349 345 341 339 329 326 323 324 330 332 330 329 329
201 203 203 203 204 202 198 195 192 188 188 191 191 192 191 195 204 236 0 15 14 13 16 16 12 9 7 5 359 355 350 346 339 333 325 325 326 329 329 330 331 334 335
203 203 203 204 204 203 202 197 196 194 191 192 193 193 192 193 193 223 333 356 9 24 25 21 14 10 6 3 359 358 354 343 335 333 329 330 333 335 334 328 324 326 328
210 209 207 207 206 204 204 203 199 197 195 194 193 194 191 188 186 201 258 21 34 38 36 32 26 17 10 9 7 3 358 352 345 336 341 341 342 340 337 334 332 327 323
212 212 211 209 208 206 204 203 200 200 197 195 194 192 187 187 190 193 83 35 38 35 31 30 30 24 18 11 8 12 7 17 21 20 353 338 346 345 344 340 337 335 335
216 215 214 210 208 207 205 203 201 200 198 196 193 191 192 191 191 182 121 50 40 33 31 34 30 23 17 18 18 12 19 38 52 355 357 0 354 352 350 346 342 341 336
217 214 213 210 208 208 205 202 200 200 198 196 195 193 191 189 183 172 154 89 47 30 28 30 30 31 26 28 25 17 26 7 11 349 352 360 357 358 355 352 353 355 351
215 213 212 211 212 210 211 209 208 202 199 201 196 193 190 190 187 181 179 172 1 16 16 14 19 20 20 31 31 74 155 222 314 298 351 352 354 358 354 356 360 359 355
215 215 212 213 213 213 212 210 206 204 201 198 196 197 194 191 191 191 193 204 251 348 354 356 8 14 15 28 35 58 86 181 327 327 325 343 350 354 357 357 356 354 350
217 214 214 214 213 215 214 212 213 210 206 205 203 199 196 194 194 195 200 214 239 301 327 349 359 2 7 22 27 27 33 37 98 348 317 327 348 356 359 357 357 355 354
218 216 214 213 213 215 213 215 213 212 212 210 203 201 199 197 198 199 204 217 240 274 307 338 348 344 0 15 23 24 15 13 7 25 311 329 343 360 353 358 358 353 351
223 219 216 213 214 215 214 214 215 214 212 207 205 203 201 201 201 201 208 215 232 252 292 314 325 344 1 10 14 15 12 14 1 6 327 326 335 335 357 347 349 347 345
Height
1530 1534 1536 1538 1541 1542 1543 1544 1544 1545 1545 1546 1547 1547 1547 1548 1548 1548 1549 1549 1549 1549 1550 1550 1549 1549 1549 1548 1547 1547 1547 1547 1546 1546 1545 1545 1544 1544 1543 1542 1541 1539 1538
1527 1532 1535 1538 1540 1541 1543 1544 1544 1545 1546 1547 1547 1547 1548 1548 1548 1549 1549 1549 1550 1550 1550 1550 1550 1549 1549 1548 1548 1547 1547 1547 1546 1545 1545 1545 1544 1544 1543 1542 1541 1540 1538
1526 1530 1534 1537 1539 1540 1542 1543 1544 1545 1546 1547 1547 1547 1547 1547 1548 1549 1549 1550 1550 1551 1550 1550 1549 1549 1549 1548 1548 1548 1547 1546 1546 1545 1544 1544 1544 1543 1542 1541 1540 1539 1537
1525 1529 1532 1535 1538 1540 1542 1543 1543 1544 1545 1545 1546 1547 1547 1547 1548 1549 1549 1550 1550 1550 1550 1549 1549 1549 1549 1549 1548 1547 1546 1545 1545 1544 1544 1543 1543 1542 1541 1540 1540 1538 1537
1524 1528 1531 1534 1536 1538 1541 1542 1543 1543 1544 1544 1545 1546 1546 1547 1548 1549 1549 1549 1550 1549 1549 1549 1549 1548 1548 1548 1547 1546 1545 1545 1544 1544 1543 1543 1542 1541 1540 1540 1538 1537 1537
1523 1526 1529 1532 1535 1537 1539 1541 1542 1543 1544 1544 1544 1545 1546 1547 1547 1548 1548 1548 1548 1548 1548 1547 1547 1546 1546 1546 1546 1546 1545 1544 1544 1543 1543 1542 1542 1540 1539 1538 1538 1537 1536
1523 1525 1527 1531 1533 1536 1538 1540 1541 1542 1542 1543 1544 1544 1545 1546 1547 1547 1547 1547 1547 1547 1547 1546 1546 1545 1545 1545 1544 1544 1544 1543 1543 1542 1542 1541 1540 1539 1538 1537 1536 1535 1535
1521 1523 1526 1529 1532 1535 1537 1538 1539 1540 1541 1542 1542 1543 1544 1545 1546 1547 1547 1548 1548 1547 1547 1546 1546 1545 1544 1544 1543 1543 1543 1542 1541 1541 1540 1539 1538 1537 1536 1535 1534 1534 1533
1519 1521 1524 1526 1530 1532 1535 1538 1538 1539 1540 1541 1541 1542 1543 1544 1545 1546 1546 1547 1547 1546 1546 1545 1545 1544 1543 1543 1542 1541 1541 1540 1540 1539 1538 1537 1536 1535 1534 1532 1531 1531 1531
1517 1519 1522 1525 1528 1530 1533 1536 1537 1538 1538 1539 1540 1541 1542 1543 1544 1545 1545 1545 1545 1545 1545 1544 1543 1542 1542 1541 1540 1539 1539 1538 1538 1537 1536 1536 1534 1533 1530 1528 1528 1527 1529
1514 1517 1520 1524 1527 1528 1530 1533 1535 1536 1538 1538 1539 1541 1542 1542 1544 1544 1544 1545 1545 1544 1544 1543 1542 1541 1540 1540 1539 1538 1537 1536 1536 1535 1534 1533 1532 1531 1528 1526 1526 1523 1524
1510 1514 1518 1522 1525 1527 1528 1530 1533 1535 1536 1538 1539 1540 1541 1542 1542 1543 1543 1543 1543 1543 1542 1542 1541 1540 1540 1539 1538 1537 1535 1534 1534 1532 1531 1530 1530 1528 1526 1524 1523 1521 1521
1507 1511 1515 1520 1523 1525 1527 1528 1530 1534 1535 1536 1538 1539 1539 1541 1541 1541 1541 1542 1542 1542 1541 1541 1540 1539 1538 1537 1536 1535 1534 1533 1532 1531 1529 1527 1526 1525 1522 1521 1520 1519 1519
1504 1508 1512 1517 1520 1523 1525 1527 1528 1531 1534 1535 1537 1538 1538 1539 1540 1540 1540 1540 1540 1540 1540 1539 1538 1537 1536 1535 1534 1533 1532 1531 1530 1528 1526 1525 1524 1521 1520 1518 1518 1517 1516
1500 1504 1509 1513 1517 1520 1522 1525 1527 1528 1532 1534 1535 1536 1536 1537 1539 1539 1539 1538 1538 1538 1538 1538 1536 1535 1534 1533 1532 1531 1530 1530 1529 1527 1526 1524 1522 1520 1518 1517 1516 1516 1515
1497 1500 1505 1510 1514 1518 1521 1523 1526 1527 1529 1532 1533 1534 1535 1535 1537 1538 1538 1537 1537 1537 1537 1536 1535 1534 1533 1532 1531 1530 1530 1528 1527 1526 1525 1522 1521 1519 1517 1515 1515 1514 1513
1493 1497 1502 1506 1511 1515 1519 1521 1524 1527 1528 1529 1531 1532 1533 1534 1535 1536 1537 1536 1536 1536 1536 1535 1534 1532 1531 1530 1529 1528 1527 1526 1525 1524 1522 1521 1519 1517 1515 1514 1513 1512 1511
1491 1494 1499 1502 1507 1511 1516 1519 1521 1524 1525 1526 1528 1530 1531 1532 1533 1533 1534 1535 1534 1534 1534 1534 1534 1533 1531 1529 1528 1527 1525 1524 1523 1522 1521 1519 1517 1515 1513 1511 1510 1509 1508
1487 1490 1495 1499 1503 1508 1511 1515 1518 1521 1523 1524 1525 1527 1529 1530 1530 1531 1532 1532 1532 1532 1532 1532 1532 1531 1530 1528 1527 1525 1525 1524 1523 1521 1520 1518 1516 1513 1511 1509 1507 1506 1505
1483 1487 1491 1495 1498 1504 1507 1511 1513 1517 1519 1521 1522 1524 1526 1527 1528 1529 1529 1530 1530 1530 1530 1530 1530 1529 1528 1526 1525 1524 1524 1523 1523 1522 1520 1518 1516 1512 1509 1506 1504 1504 1503
1478 1481 1484 1488 1492 1497 1500 1504 1508 1512 1514 1517 1519 1521 1524 1526 1526 1526 1527 1528 1528 1529 1528 1528 1527 1527 1526 1524 1524 1523 1522 1523 1521 1520 1519 1517 1515 1512 1509 1505 1502 1501 1500
1468 1472 1477 1482 1486 1490 1495 1500 1505 1508 1511 1514 1515 1517 1520 1522 1523 1524 1524 1526 1526 1526 1525 1525 1525 1524 1523 1521 1520 1520 1521 1522 1520 1519 1517 1517 1514 1512 1510 1506 1502 1501 1499
1458 1462 1468 1473 1480 1484 1489 1496 1500 1503 1506 1508 1510 1513 1515 1518 1520 1521 1521 1522 1522 1522 1522 1522 1520 1520 1521 1519 1517 1518 1519 1520 1518 1517 1516 1515 1513 1509 1507 1505 1502 1499 1497
1445 1454 1461 1465 1472 1477 1482 1487 1491 1494 1497 1502 1505 1509 1512 1514 1515 1517 1519 1519 1519 1519 1519 1519 1518 1516 1518 1516 1514 1513 1514 1515 1517 1517 1514 1512 1510 1507 1505 1504 1500 1496 1496
1444 1448 1454 1459 1466 1469 1475 1480 1485 1490 1495 1498 1501 1504 1507 1510 1512 1513 1515 1516 1516 1516 1516 1516 1515 1516 1515 1513 1512 1511 1511 1510 1510 1512 1512 1510 1507 1506 1502 1500 1499 1494 1494
1437 1443 1448 1453 1458 1463 1467 1473 1478 1483 1488 1491 1495 1498 1502 1505 1507 1509 1510 1511 1512 1512 1512 1512 1512 1512 1512 1509 1508 1507 1507 1507 1505 1507 1508 1508 1504 1504 1501 1499 1496 1494 1491